date,time,DOY,Ta_1_1_1,RH_1_1_1,LWin_1_1_1,LWout_1_1_1,SWin_1_1_1,SWout_1_1_1,PPFD_1_1_1,SWC_1_1_1,Ts_1_1_1
[yyyy-mm-dd],[HH:MM],[ddd.ddd],[K],[%],[W+1m-2],[W+1m-2],[W+1m-2],[W+1m-2],[µmol+1m-2s-1],[m+3m-3],[K]
2013-04-30,00:30,120.020,284.50566666666674,95.085333333333352,-9999.0,-9999.0,-5.06666666666666585E-002,-3.5276666666666663,0.0000000000000000,-9999.0,273.15999999999991
2013-04-30,01:00,120.041,284.61300000000006,93.519999999999996,-9999.0,-9999.0,-0.13000000000000000,-3.5363333333333333,0.0000000000000000,-9999.0,273.15999999999991
2013-04-30,01:30,120.062,284.55900000000003,93.457333333333324,-9999.0,-9999.0,-0.27233333333333332,-3.2903333333333342,0.0000000000000000,-9999.0,273.15999999999991
2013-04-30,02:00,120.083,284.26533333333339,94.312666666666644,-9999.0,-9999.0,-0.28166666666666679,-3.1113333333333344,0.0000000000000000,-9999.0,273.15999999999991
2013-04-30,02:30,120.104,284.07566666666679,94.994999999999990,-9999.0,-9999.0,-0.19566666666666671,-2.9426666666666672,0.0000000000000000,-9999.0,273.15999999999991
2013-04-30,03:00,120.124,283.92366666666663,95.720333333333343,-9999.0,-9999.0,-0.25599999999999995,-2.4399999999999999,0.0000000000000000,-9999.0,273.15999999999991
2013-04-30,03:30,120.145,283.89766666666668,96.247000000000014,-9999.0,-9999.0,-0.31900000000000001,-1.9353333333333331,0.0000000000000000,-9999.0,273.15999999999991
2013-04-30,04:00,120.166,283.95966666666669,96.666666666666657,-9999.0,-9999.0,-0.30533333333333340,-2.1223333333333332,0.0000000000000000,-9999.0,273.15999999999991
2013-04-30,04:30,120.187,283.91199999999998,97.579666666666682,-9999.0,-9999.0,-0.18433333333333338,-2.5440000000000000,0.17300000000000001,-9999.0,273.15999999999991
2013-04-30,05:00,120.208,283.95700000000011,98.265000000000015,-9999.0,-9999.0,0.58233333333333337,2.8866666666666663,8.8306666666666676,-9999.0,273.15999999999991
2013-04-30,05:30,120.229,284.12899999999996,98.210666666666668,-9999.0,-7.6399999999999997,5.1833333333333336,34.677666666666667,62.400333333333336,-9999.0,273.15999999999991
2013-04-30,06:00,120.249,284.37066666666669,98.000000000000014,-9999.0,-9999.0,10.472333333333331,71.832000000000008,137.55099999999999,-9999.0,273.15999999999991
2013-04-30,06:30,120.270,284.49200000000002,98.351000000000013,-9999.0,-7.0969565217391315,7.9543333333333353,58.169666666666664,121.96766666666669,-9999.0,273.15999999999991
2013-04-30,07:00,120.291,284.78699999999998,98.072666666666677,-9999.0,-6.6713333333333349,10.565999999999999,76.436666666666667,163.34366666666668,-9999.0,273.15999999999991
2013-04-30,07:30,120.312,285.33133333333336,96.741000000000014,-9999.0,-7.3780000000000010,29.601999999999997,205.84233333333336,412.42166666666657,-9999.0,273.15999999999991
2013-04-30,08:00,120.333,286.35533333333331,91.749333333333297,-9999.0,-9999.0,40.375666666666667,286.46566666666666,576.10399999999981,-9999.0,273.15999999999991
2013-04-30,08:30,120.354,287.07733333333334,88.570333333333338,-9999.0,-9999.0,56.232333333333330,397.41399999999999,800.62333333333322,-9999.0,273.15999999999991
2013-04-30,09:00,120.374,288.14766666666668,84.028333333333350,-9999.0,-9999.0,59.079666666666668,410.71200000000010,838.64499999999987,-9999.0,273.15999999999991
2013-04-30,09:30,120.395,289.40433333333334,79.828000000000003,-9999.0,-9999.0,84.468333333333334,584.45333333333326,1181.3110000000001,-9999.0,273.15999999999991
2013-04-30,10:00,120.416,291.59533333333337,71.255666666666670,-9999.0,-9999.0,104.49366666666668,719.81100000000004,1459.5526666666669,-9999.0,273.15999999999991
2013-04-30,10:30,120.437,293.10600000000005,64.484666666666669,-9999.0,-9999.0,108.77766666666666,749.13033333333317,1522.7023333333336,-9999.0,273.15999999999991
2013-04-30,11:00,120.458,294.54566666666670,58.053333333333327,-9999.0,-9999.0,111.98166666666663,773.34233333333339,1588.1953333333329,-9999.0,273.15999999999991
2013-04-30,11:30,120.479,295.44166666666666,54.487333333333332,-9999.0,-9999.0,122.16166666666668,847.16766666666661,1745.9573333333333,-9999.0,273.15999999999991
2013-04-30,12:00,120.499,296.26966666666675,51.158999999999999,-9999.0,-9999.0,122.40933333333332,861.20666666666671,1781.3630000000005,-9999.0,273.15999999999991
2013-04-30,12:30,120.520,296.82533333333333,49.290333333333329,-9999.0,-9999.0,72.674333333333351,530.66833333333341,1120.1516666666669,-9999.0,273.15999999999991
2013-04-30,13:00,120.541,297.03499999999997,48.723666666666681,-9999.0,-9999.0,104.86966666666666,777.89100000000008,1610.4829999999999,-9999.0,273.15999999999991
2013-04-30,13:30,120.562,296.81300000000005,48.998000000000005,-9999.0,-9999.0,48.994999999999990,378.13499999999999,785.11866666666640,-9999.0,273.15999999999991
2013-04-30,14:00,120.583,297.19033333333340,46.431000000000004,-9999.0,-9999.0,73.564333333333352,563.68566666666663,1180.6690000000001,-9999.0,273.15999999999991
2013-04-30,14:30,120.604,297.39300000000009,42.936000000000014,-9999.0,-9999.0,74.855000000000004,582.65833333333330,1217.0080000000000,-9999.0,273.15999999999991
2013-04-30,15:00,120.624,297.62566666666675,41.518999999999998,-9999.0,-9999.0,72.749666666666670,575.83633333333330,1184.6783333333335,-9999.0,273.15999999999991
2013-04-30,15:30,120.645,297.70033333333339,40.241999999999997,-9999.0,-9999.0,56.021333333333331,449.56500000000000,932.66799999999989,-9999.0,273.15999999999991
2013-04-30,16:00,120.666,298.02100000000007,38.686666666666675,-9999.0,-9999.0,67.343333333333334,530.43066666666653,1072.1986666666669,-9999.0,273.15999999999991
2013-04-30,16:30,120.687,298.20900000000000,32.981666666666669,-9999.0,-9999.0,50.742666666666665,401.78133333333335,817.65533333333360,-9999.0,273.15999999999991
2013-04-30,17:00,120.708,297.84633333333335,30.810666666666670,-9999.0,-9999.0,38.417333333333325,297.99433333333337,600.80299999999988,-9999.0,273.15999999999991
2013-04-30,17:30,120.729,297.04866666666663,32.347333333333339,-9999.0,-9999.0,22.600333333333332,177.27633333333333,366.10466666666656,-9999.0,273.15999999999991
2013-04-30,18:00,120.749,295.29966666666672,38.660333333333334,-9999.0,-9999.0,19.252666666666666,146.30800000000002,295.13433333333336,-9999.0,273.15999999999991
2013-04-30,18:30,120.770,294.06366666666668,42.183666666666674,-9999.0,-9999.0,7.1216666666666670,54.887666666666654,123.76266666666669,-9999.0,273.15999999999991
2013-04-30,19:00,120.791,292.87766666666664,41.129666666666672,-9999.0,-9999.0,2.4239999999999999,17.594333333333338,44.679333333333339,-9999.0,273.15999999999991
2013-04-30,19:30,120.812,291.43733333333330,40.129999999999995,-9999.0,-9999.0,-7.56666666666666737E-002,-2.7703333333333329,4.6726666666666672,-9999.0,273.15999999999991
2013-04-30,20:00,120.833,290.41766666666678,37.095999999999997,-9999.0,-9999.0,-6.16666666666666752E-002,-4.6666666666666679,5.60000000000000081E-002,-9999.0,273.15999999999991
2013-04-30,20:30,120.854,289.66333333333336,36.762666666666661,-9999.0,-9999.0,-0.16100000000000000,-3.7096666666666658,0.0000000000000000,-9999.0,273.15999999999991
2013-04-30,21:00,120.874,289.02100000000002,37.998666666666665,-9999.0,-9999.0,-0.92966666666666675,-1.8976666666666666,0.0000000000000000,-9999.0,273.15999999999991
2013-04-30,21:30,120.895,288.75466666666665,38.215333333333341,-9999.0,-9999.0,-0.92333333333333345,-2.0336666666666665,0.0000000000000000,-9999.0,273.15999999999991
2013-04-30,22:00,120.916,288.46866666666671,39.491999999999997,-9999.0,-9999.0,-0.80033333333333334,-3.8264285714285711,0.0000000000000000,-9999.0,273.15999999999991
2013-04-30,22:30,120.937,286.52199999999993,50.837333333333341,-9999.0,-9999.0,-1.0779999999999998,-3.8325925925925919,0.0000000000000000,-9999.0,273.15999999999991
2013-04-30,23:00,120.958,286.12633333333343,54.060666666666670,-9999.0,-9999.0,-0.87166666666666659,-2.0573333333333332,0.0000000000000000,-9999.0,273.15999999999991
2013-04-30,23:30,120.979,285.65200000000004,57.480666666666671,-9999.0,-9999.0,-1.0896666666666666,-2.2060000000000004,0.0000000000000000,-9999.0,273.15999999999991
2013-05-01,00:00,121.000,285.12233333333336,61.002999999999979,-9999.0,-9999.0,-1.1010000000000000,-1.5836666666666668,0.0000000000000000,-9999.0,273.15999999999991
